STARLINK-34712, 64907

Orbit data source: Space-Track

STARLINK-34712, 64907 is a payload satellite owned by SpaceX/Seattle (US) in LEO that was launched on Sat, 26 Jul 2025 UTC via an FALCON 9 launch vehicle from the Air Force Eastern Test Range (AFETR). Payload-class satellites include a variety of spacecraft equipped with specific instruments for various scientific and technological missions. These include communications satellites like Starlink; space stations such as the ISS; scientific satellites like the Hubble; Earth observation satellites from companies like Planet Labs, Umbra, and HawkEye 360; GPS; miniature CubeSats for education and research; and military/defense satellites.

Loading next visibility...
Identifier
64907, 2025-157D
Orbit
LEO
Country
Flag of USUS
Related business
Manufacturer
SpaceX/Seattle
Mission
Operational Commercial Communications
Bus & Motor
STARLINK V2MO, Unknown motor
Mass
575 kg wet, ~530 kg dry
Launch date (UTC)
2025-07-26 (10 months ago)
Launch vehicle
FALCON 9
Launch site
Air Force Eastern Test Range (AFETR)
Object type
Payload
Rocket body
Debris
Shape & HBR
Box + 2 Pan, 17.7 m
Radar Cross Section
36.964 m², Large (>1 m²)

Expand to show TLE details & history
Last TLE update: 21 hours ago

TLE from 21 hours ago
0 STARLINK-34712
1 64907U 25157D   26144.99654036  .00032615  00000-0  97219-3 0  9993
2 64907  53.1606 350.0348 0001435 103.0031 257.1132 15.34401520 47820
Epoch: 2026-05-24T23:55Z
TLE epoch observation values (Epoch: 2026-05-24T23:55:01.087Z)
Latitude
0.00001°
Longitude
108.68961°
Altitude
463.819 km
Speed
7.636 km/s
True Right ascension
23h 20m 08s
True Declination
0° 00' 00"
Sunlit
Object was in daylight at epoch
Visualization orbit readout
Latitude
Unknown
Longitude
Unknown
Altitude
Unknown
Speed
Unknown
Apparent Right ascension
Unknown
Apparent Declination
Unknown
Sunlit
N/A
Visualization observer readout
Local Sidereal Time
06:09:13
Azimuth
Unknown
Elevation
Unknown
Doppler factor
Unknown
Orbital elements
Apogee altitude
463.937 km
Perigee altitude
461.974 km
Semi-major axis
6,841.093 km
Eccentricity
0.00014
Inclination
53.1606°
RAAN
350.0348°
Arg. of periapsis
103.0031°
True anomaly
257.09717°
Mean anomaly
257.1132°
Eccentric anomaly
257.10519°
Mean motion
3.83579 °/min
Orbital period
93.85 mins
BSTAR
0.00097219
Loading maneuver chart data...
Computing Atmospheric mass density...
Loading historical data...
Loading historical data...
Loading historical data...
Loading historical data...
Loading historical data...
Loading historical data...
Loading historical data...

Documentation

Showing up to 5 results
|